Location: Gesvres
(49.0440°N, 2.8518°E)
Time: 08:02:34
(UTC+00:00)

Cosmos 1697 Rocket - Pass Details

Date: 28 January 2023
Orbit: 834 x 841 km, 71.0° (Epoch: 30 March)

Event Time Altitude Azimuth Distance (km) Brightness Sun altitude
Rises 18:41:16 0° 239° (WSW) 3,390 7.0 -20.0°
Reaches altitude 10° 18:43:58 10° 250° (WSW) 2,458 6.2 -20.5°
Maximum altitude 18:48:58 32° 312° (NW) 1,418 4.3 -21.3°
Drops below altitude 10° 18:54:00 10° 15° (NNE) 2,466 4.9 -22.1°
Enters shadow 18:54:31 - 17° (NNE) 2,635 5.1 -22.2°
